1483992001.2,40794,4.81,72760.8,-15.21,-16.09,-16.27,0,*65
1483992002.5,40795,4.81,72762.3,-15.21,-16.09,-16.31,0,*63
1483992003.8,40796,4.81,72762.8,-15.21,-16.13,-16.27,0,*6C
1483992005.08,40797,4.81,72766.0,-15.21,-16.13,-16.37,0,*6C
1483992006.35,40798,4.81,72770.5,-15.21,-16.13,-16.37,0,*63
1483992007.65,40799,4.81,72766.3,-15.21,-16.13,-16.27,0,*63
1483992008.89,40800,4.81,72766.5,-15.23,-16.13,-16.37,0,*6F
1483992010.19,40801,4.81,72754.5,-15.21,-16.13,-16.27,0,*6D
1483992011.46,40802,4.81,72754.3,-15.21,-16.13,-16.37,0,*6F
1483992012.73,40803,4.81,72760.5,-15.19,-16.13,-16.27,0,*64
1483992014.03,40804,4.81,72764.5,-15.21,-16.13,-16.23,0,*6C
1483992015.3,40805,4.88,72766.5,-15.23,-16.13,-16.31,0,*6C
1483992016.57,40806,4.81,72762.8,-15.21,-16.13,-16.37,0,*6B
1483992017.87,40807,4.81,72768.0,-15.21,-16.13,-16.27,0,*6B
1483992019.17,40808,4.81,72766.5,-15.21,-16.13,-16.27,0,*64
1483992020.42,40809,4.81,72774.5,-15.23,-16.17,-16.41,0,*63
1483992021.65,40810,4.81,72764.5,-15.23,-16.31,-16.45,0,*6B
1483992022.88,40811,4.81,72766.8,-15.23,-16.31,-16.55,0,*6B
1483992024.16,40812,4.81,72772.0,-15.21,-16.27,-16.55,0,*6D
1483992025.4,40813,4.81,72770.3,-15.23,-16.31,-16.59,0,*65
1483992026.64,40814,4.81,72774.0,-15.23,-16.23,-16.41,0,*68
1483992027.88,40815,4.81,72778.8,-15.23,-16.17,-16.45,0,*6A
1483992029.14,40816,4.81,72774.0,-15.23,-16.17,-16.31,0,*6A
1483992030.39,40817,4.81,72778.0,-15.23,-16.17,-16.41,0,*6C
1483992031.65,40818,4.81,72774.3,-15.23,-16.17,-16.31,0,*64
1483992032.93,40819,4.81,72774.3,-15.21,-16.13,-16.37,0,*65
1483992034.17,40820,4.81,72768.5,-15.23,-16.17,-16.41,0,*68
1483992035.42,40821,4.81,72776.8,-15.23,-16.17,-16.41,0,*69
1483992036.68,40822,4.81,72768.3,-15.23,-16.17,-16.31,0,*6D
1483992037.98,40823,4.81,72772.8,-15.21,-16.13,-16.31,0,*6A
1483992039.25,40824,4.81,72770.8,-15.23,-16.17,-16.31,0,*6B
1483992040.55,40825,4.81,72774.0,-15.21,-16.13,-16.27,0,*6B
1483992041.79,40826,4.81,72770.0,-15.23,-16.13,-16.41,0,*6A
1483992043.07,40827,4.81,72772.8,-15.21,-16.13,-16.37,0,*68
1483992044.34,40828,4.81,72776.5,-15.21,-16.13,-16.37,0,*67
1483992045.58,40829,4.81,72776.3,-15.23,-16.17,-16.41,0,*61
1483992046.88,40830,4.81,72772.0,-15.21,-16.13,-16.27,0,*6F
1483992048.16,40831,4.81,72778.8,-15.21,-16.09,-16.37,0,*64
1483992049.4,40832,4.81,72770.3,-15.23,-16.09,-16.41,0,*64
1483992050.67,40833,4.81,72770.0,-15.23,-16.13,-16.31,0,*69
1483992051.94,40834,4.81,72770.5,-15.21,-16.03,-16.23,0,*6E
1483992053.21,40835,4.81,72776.8,-15.21,-16.03,-16.23,0,*6F
1483992054.45,40836,4.81,72772.0,-15.23,-15.99,-16.17,0,*69
1483992055.72,40837,4.81,72772.3,-15.21,-16.03,-16.27,0,*69
1483992056.99,40838,4.81,72774.0,-15.21,-15.95,-16.13,0,*6D
1483992058.26,40839,4.81,72772.3,-15.21,-15.95,-16.13,0,*6C
1483992059.5,40840,4.81,72776.8,-15.23,-15.99,-16.17,0,*68
1483992060.75,40841,4.81,72776.0,-15.23,-15.95,-16.17,0,*65
1483992062.02,40842,4.81,72772.0,-15.21,-15.95,-16.13,0,*60
1483992063.25,40843,4.81,72772.0,-15.23,-15.99,-16.13,0,*6F
1483992064.52,40844,4.81,72774.0,-15.21,-15.89,-16.03,0,*6A
1483992065.8,40845,4.81,72776.5,-15.21,-15.95,-16.09,0,*6C
1483992067.08,40846,4.81,72774.0,-15.21,-15.95,-16.09,0,*6F
1483992068.35,40847,4.81,72768.0,-15.21,-15.89,-16.03,0,*69
1483992069.59,40848,4.81,72774.5,-15.23,-15.95,-16.13,0,*68
1483992070.83,40849,4.81,72776.8,-15.23,-15.95,-16.09,0,*62
1483992072.11,40850,4.81,72770.3,-15.21,-15.89,-16.03,0,*6F
1483992073.38,40851,4.81,72766.0,-15.21,-15.89,-16.03,0,*6E
1483992074.65,40852,4.81,72764.3,-15.21,-15.89,-16.03,0,*6D
1483992075.92,40853,4.81,72764.5,-15.21,-15.89,-16.03,0,*6C
1483992077.19,40854,4.81,72766.3,-15.21,-15.89,-16.03,0,*6B
1483992078.46,40855,4.81,72760.3,-15.21,-15.89,-16.03,0,*6A
1483992079.74,40856,4.81,72764.0,-15.21,-15.89,-16.03,0,*69
1483992081.01,40857,4.81,72762.5,-15.21,-15.89,-15.95,0,*64
1483992082.29,40858,4.81,72762.5,-15.21,-15.89,-15.95,0,*6B
1483992083.49,40859,4.81,72766.8,-15.23,-15.99,-15.99,0,*65
1483992084.77,40860,4.81,72766.8,-15.21,-15.89,-15.95,0,*60
1483992086.04,40861,4.81,72768.3,-15.21,-15.89,-16.03,0,*6D
1483992087.28,40862,4.81,72768.5,-15.23,-15.95,-16.13,0,*60
1483992088.53,40863,4.81,72766.8,-15.21,-15.95,-16.03,0,*62
1483992089.8,40864,4.81,72770.5,-15.21,-15.89,-16.03,0,*68
1483992091.07,40865,4.81,72766.3,-15.21,-15.95,-16.09,0,*6E
1483992092.35,40866,4.81,72766.0,-15.21,-15.95,-16.09,0,*6D
1483992093.6,40867,4.81,72768.8,-15.21,-15.95,-16.03,0,*66
1483992094.84,40868,4.81,72770.8,-15.19,-15.95,-16.09,0,*68
1483992096.09,40869,4.81,72766.3,-15.19,-15.95,-16.09,0,*69
1483992097.33,40870,4.81,72770.8,-15.19,-15.95,-16.09,0,*61
1483992098.58,40871,4.81,72762.5,-15.19,-16.03,-16.09,0,*6C
1483992099.82,40872,4.81,72764.3,-15.19,-15.95,-16.09,0,*63
1483992101.07,40873,4.81,72762.0,-15.19,-15.95,-16.09,0,*62
1483992102.31,40874,4.81,72762.5,-15.19,-16.03,-16.09,0,*69
1483992103.55,40875,4.81,72758.0,-15.19,-16.03,-16.13,0,*63
1483992104.82,40876,4.81,72758.8,-15.19,-16.09,-16.13,0,*6A
1483992106.06,40877,4.81,72756.5,-15.19,-15.95,-16.13,0,*6D
1483992107.31,40878,4.81,72764.0,-15.19,-15.95,-16.13,0,*62
1483992108.55,40879,4.81,72756.8,-15.19,-16.03,-16.13,0,*6F
1483992109.79,40880,4.81,72756.8,-15.19,-16.03,-16.13,0,*69
1483992111.03,40881,4.81,72770.8,-15.19,-16.03,-16.23,0,*6B
1483992112.27,40882,4.81,72762.5,-15.19,-16.03,-16.13,0,*6B
1483992113.51,40883,4.81,72768.3,-15.19,-15.95,-16.13,0,*66
1483992114.78,40884,4.81,72776.8,-15.19,-16.09,-16.13,0,*67
1483992116.05,40885,4.81,72774.3,-15.19,-16.09,-16.13,0,*66
1483992117.32,40886,4.81,72756.3,-15.19,-16.09,-16.13,0,*65
1483992118.63,40887,4.81,72762.3,-15.21,-16.09,-16.13,0,*6F
1483992119.93,40888,4.81,72766.3,-15.21,-16.13,-16.27,0,*6C
1483992121.17,40889,4.81,72760.5,-15.23,-16.17,-16.41,0,*6B
1483992122.44,40890,4.81,72762.0,-15.21,-16.13,-16.37,0,*64
1483992123.72,40891,4.81,72768.0,-15.21,-16.13,-16.41,0,*64
1483992124.98,40892,4.81,72764.0,-15.19,-16.13,-16.51,0,*6D
1483992126.26,40893,4.81,72770.8,-15.21,-16.13,-16.37,0,*67
1483992127.55,40894,4.81,72770.3,-15.21,-16.27,-16.51,0,*67
1483992128.82,40895,4.81,72772.0,-15.21,-16.27,-16.41,0,*67
1483992130.09,40896,4.81,72772.5,-15.21,-16.27,-16.55,0,*61
1483992131.36,40897,4.81,72762.8,-15.21,-16.37,-16.65,0,*62
1483992132.61,40898,4.81,72768.0,-15.21,-16.41,-16.55,0,*6F
1483992133.86,40899,4.81,72768.5,-15.23,-16.31,-16.59,0,*67
1483992135.1,40900,4.81,72770.8,-15.23,-16.31,-16.55,0,*6A
1483992136.37,40901,4.81,72764.3,-15.21,-16.37,-16.65,0,*6C
1483992137.66,40902,4.81,72770.8,-15.21,-16.51,-16.69,0,*63
1483992138.96,40903,4.81,72768.8,-15.21,-16.51,-16.69,0,*62
1483992140.18,40904,4.81,72770.8,-15.23,-16.55,-16.75,0,*6E
1483992141.43,40905,4.81,72770.5,-15.21,-16.55,-16.83,0,*64
1483992142.68,40906,4.81,72776.8,-15.23,-16.69,-16.97,0,*6F
1483992143.95,40907,4.81,72774.5,-15.21,-16.65,-16.93,0,*64
1483992145.19,40908,4.81,72766.0,-15.23,-16.69,-16.97,0,*61
1483992146.43,40909,4.81,72770.0,-15.23,-16.83,-17.03,0,*68
1483992147.67,40910,4.81,72774.3,-15.23,-16.83,-17.17,0,*65
1483992148.92,40911,4.81,72772.8,-15.23,-16.83,-17.21,0,*61
1483992150.13,40912,4.81,72778.0,-15.23,-16.89,-17.31,0,*69
1483992151.37,40913,4.81,72774.8,-15.23,-16.83,-17.21,0,*63
1483992152.6,40914,4.81,72776.8,-15.23,-16.97,-17.35,0,*64
1483992153.82,40915,4.81,72770.8,-15.23,-16.97,-17.35,0,*65
1483992155.06,40916,4.81,72772.8,-15.23,-16.97,-17.45,0,*61
1483992156.28,40917,4.81,72770.3,-15.23,-16.97,-17.35,0,*67
1483992157.52,40918,4.81,72770.3,-15.23,-16.97,-17.45,0,*6F
1483992158.73,40919,4.81,72776.5,-15.23,-16.97,-17.49,0,*62
1483992159.95,40920,4.81,72770.3,-15.23,-16.89,-17.49,0,*67
1483992161.21,40921,4.81,72768.8,-15.21,-16.93,-17.45,0,*63
1483992162.46,40922,4.81,72772.5,-15.23,-16.89,-17.45,0,*69
1483992163.67,40923,4.81,72770.3,-15.23,-16.89,-17.49,0,*64
1483992164.91,40924,4.81,72776.0,-15.23,-16.89,-17.59,0,*62
1483992166.16,40925,4.81,72774.8,-15.23,-16.89,-17.59,0,*63
1483992167.4,40926,4.81,72772.0,-15.23,-16.89,-17.45,0,*6D
1483992168.7,40927,4.81,72772.8,-15.21,-16.69,-17.45,0,*60
1483992169.94,40928,4.81,72776.5,-15.23,-16.75,-17.45,0,*60
1483992171.19,40929,4.81,72778.8,-15.23,-16.69,-17.35,0,*6B
1483992172.43,40930,4.81,72778.8,-15.23,-16.55,-17.45,0,*6B
1483992173.68,40931,4.81,72776.3,-15.23,-16.55,-17.17,0,*6D
1483992174.92,40932,4.81,72772.8,-15.23,-16.45,-17.03,0,*6A
1483992176.16,40933,4.81,72772.5,-15.23,-16.31,-16.83,0,*61
1483992177.41,40934,4.81,72776.5,-15.23,-16.17,-16.59,0,*65
1483992178.64,40935,4.81,72774.5,-15.25,-16.17,-16.45,0,*6F
1483992179.88,40936,4.81,72768.3,-15.23,-16.17,-16.45,0,*6A
1483992181.16,40937,4.81,72772.3,-15.21,-16.13,-16.37,0,*68
1483992182.42,40938,4.81,72768.0,-15.23,-16.17,-16.31,0,*67
1483992183.69,40939,4.81,72768.0,-15.25,-16.17,-16.31,0,*60
1483992184.93,40940,4.81,72770.5,-15.23,-16.17,-16.41,0,*6F
1483992186.2,40941,4.81,72770.3,-15.23,-16.13,-16.31,0,*6D
1483992187.47,40942,4.81,72772.3,-15.23,-16.13,-16.31,0,*6E
1483992188.74,40943,4.81,72768.5,-15.23,-16.13,-16.31,0,*6F
1483992190.01,40944,4.81,72772.5,-15.23,-16.13,-16.31,0,*68
1483992191.28,40945,4.81,72772.5,-15.23,-16.13,-16.31,0,*69
1483992192.52,40946,4.81,72766.5,-15.23,-16.13,-16.41,0,*6D
1483992193.77,40947,4.81,72766.3,-15.23,-16.13,-16.41,0,*6C
1483992195.01,40948,4.81,72766.3,-15.23,-16.13,-16.41,0,*63
1483992196.25,40949,4.81,72770.0,-15.23,-16.17,-16.45,0,*62
1483992197.5,40950,4.81,72764.0,-15.23,-16.17,-16.55,0,*6B
1483992198.74,40951,4.81,72762.5,-15.23,-16.27,-16.55,0,*69
1483992199.99,40952,4.81,72762.0,-15.23,-16.41,-16.69,0,*65
1483992201.23,40953,4.81,72760.8,-15.23,-16.41,-16.69,0,*64
1483992202.47,40954,4.81,72768.3,-15.23,-16.31,-16.75,0,*69
1483992203.7,40955,4.81,72760.8,-15.23,-16.41,-16.83,0,*66
1483992204.92,40956,4.81,72766.5,-15.23,-16.55,-16.83,0,*60
1483992206.13,40957,4.81,72762.3,-15.23,-16.55,-16.89,0,*6B
1483992207.4,40958,4.81,72768.5,-15.21,-16.51,-16.93,0,*69
1483992208.62,40959,4.81,72766.8,-15.23,-16.55,-16.97,0,*6A
1483992209.86,40960,4.81,72764.3,-15.23,-16.69,-16.97,0,*6F
1483992211.11,40961,4.81,72764.5,-15.23,-16.59,-17.03,0,*61
1483992212.35,40962,4.81,72766.8,-15.23,-16.75,-17.11,0,*6F
1483992213.6,40963,4.81,72766.5,-15.23,-16.83,-17.11,0,*67
1483992214.84,40964,4.81,72764.5,-15.23,-16.83,-17.21,0,*63
1483992216.08,40965,4.81,72762.3,-15.23,-16.83,-17.21,0,*62
1483992217.31,40966,4.81,72764.8,-15.23,-16.89,-17.35,0,*6E
1483992218.57,40967,4.81,72768.3,-15.21,-16.93,-17.45,0,*61
1483992219.81,40968,4.81,72752.8,-15.23,-16.97,-17.63,0,*6C
1483992221.08,40969,4.81,72770.5,-15.23,-17.03,-17.63,0,*61
1483992222.32,40970,4.81,72758.8,-15.25,-17.11,-17.73,0,*6D
1483992223.58,40971,4.81,72764.8,-15.23,-17.11,-17.79,0,*60
1483992224.82,40972,4.81,72766.0,-15.23,-17.11,-17.87,0,*62
1483992226.07,40973,4.81,72762.8,-15.23,-17.11,-17.87,0,*63
1483992227.33,40974,4.81,72764.0,-15.25,-17.21,-17.93,0,*64
1483992228.6,40975,4.81,72762.3,-15.23,-17.17,-18.01,0,*62
1483992229.87,40976,4.81,72764.0,-15.23,-17.17,-17.93,0,*65
1483992231.13,40977,4.81,72764.8,-15.23,-17.21,-17.93,0,*61
1483992232.4,40978,4.81,72760.8,-15.23,-17.17,-17.93,0,*6B
1483992233.67,40979,4.81,72752.5,-15.25,-17.17,-17.93,0,*6C
1483992234.93,40980,4.81,72758.3,-15.25,-17.11,-17.93,0,*6C
1483992236.17,40981,4.81,72754.3,-15.25,-17.11,-17.87,0,*68
1483992237.43,40982,4.81,72758.0,-15.25,-17.11,-17.79,0,*6A
1483992238.69,40983,4.81,72758.3,-15.25,-17.11,-17.79,0,*6B
1483992239.96,40984,4.81,72760.5,-15.25,-17.11,-17.79,0,*6C
1483992241.22,40985,4.81,72756.5,-15.25,-17.03,-17.79,0,*6E
1483992242.47,40986,4.81,72754.0,-15.25,-17.17,-17.83,0,*6D
1483992243.73,40987,4.81,72756.3,-15.25,-17.11,-17.79,0,*6F
1483992244.98,40988,4.81,72764.3,-15.25,-17.21,-17.87,0,*62
1483992246.24,40989,4.81,72764.0,-15.27,-17.25,-18.07,0,*62
1483992247.51,40990,4.81,72758.5,-15.25,-17.21,-18.01,0,*6A
1483992248.76,40991,4.81,72762.5,-15.25,-17.17,-18.07,0,*68
1483992250.0,40992,4.81,72764.3,-15.25,-17.21,-18.07,0,*6E
1483992251.25,40993,4.81,72766.3,-15.25,-17.17,-18.11,0,*6D
1483992252.49,40994,4.81,72762.8,-15.25,-17.31,-18.01,0,*6F
1483992253.73,40995,4.81,72756.8,-15.25,-17.21,-18.07,0,*69
1483992254.98,40996,4.81,72766.8,-15.25,-17.21,-18.07,0,*6A
1483992256.24,40997,4.81,72764.8,-15.27,-17.25,-18.07,0,*6D
1483992257.45,40998,4.81,72762.5,-15.25,-17.31,-18.21,0,*61
1483992258.66,40999,4.81,72770.0,-15.25,-17.31,-18.21,0,*60
1483992259.9,41000,4.81,72762.3,-15.27,-17.35,-18.17,0,*6B
1483992261.15,41001,4.81,72756.5,-15.27,-17.25,-18.25,0,*6A
1483992262.37,41002,4.81,72758.3,-15.25,-17.35,-18.21,0,*6E
1483992263.61,41003,4.81,72756.8,-15.25,-17.35,-18.35,0,*6A
1483992264.86,41004,4.81,72762.5,-15.25,-17.49,-18.35,0,*66
1483992266.07,41005,4.81,72770.0,-15.25,-17.49,-18.49,0,*6C
1483992267.29,41006,4.81,72764.3,-15.25,-17.49,-18.49,0,*6F
1483992268.56,41007,4.81,72764.3,-15.27,-17.63,-18.55,0,*69
1483992269.8,41008,4.81,72758.0,-15.27,-17.69,-18.73,0,*68
1483992271.01,41009,4.81,72764.3,-15.25,-17.73,-18.79,0,*6A
1483992272.21,41010,4.81,72762.3,-15.25,-17.73,-18.79,0,*62
1483992273.47,41011,4.81,72752.8,-15.27,-17.83,-18.89,0,*61
1483992274.7,41012,4.81,72756.3,-15.27,-17.83,-19.03,0,*61
1483992275.96,41013,4.81,72756.3,-15.27,-17.97,-18.99,0,*67
1483992277.23,41014,4.81,72760.0,-15.27,-17.97,-19.17,0,*67
1483992278.46,41015,4.81,72766.5,-15.29,-18.07,-19.23,0,*69
1483992279.7,41016,4.81,72764.5,-15.29,-18.11,-19.31,0,*6E
1483992280.95,41017,4.81,72762.0,-15.25,-18.21,-19.57,0,*60
1483992282.18,41018,4.81,72760.3,-15.27,-18.25,-19.75,0,*69
1483992283.4,41019,4.81,72758.8,-15.29,-18.41,-19.91,0,*6E
1483992284.65,41020,4.81,72764.8,-15.31,-18.49,-19.95,0,*61
1483992285.89,41021,4.81,72760.5,-15.29,-18.55,-19.91,0,*60
1483992287.13,41022,4.81,72758.5,-15.29,-18.59,-20.05,0,*68
1483992288.35,41023,4.81,72764.8,-15.29,-18.73,-20.25,0,*63
1483992289.59,41024,4.81,72764.3,-15.27,-18.83,-20.43,0,*65
1483992290.84,41025,4.81,72762.8,-15.31,-18.79,-20.73,0,*65
1483992292.06,41026,4.81,72766.0,-15.29,-18.83,-20.73,0,*6A
1483992293.28,41027,4.81,72766.3,-15.29,-18.83,-20.69,0,*60
1483992294.52,41028,4.81,72762.5,-15.29,-18.89,-20.73,0,*6E
1483992295.76,41029,4.81,72768.0,-15.31,-19.03,-20.93,0,*6B
1483992297.0,41030,4.81,72768.3,-15.31,-19.07,-21.09,0,*65
1483992298.28,41031,4.81,72764.8,-15.31,-19.07,-21.23,0,*6C
1483992299.53,41032,4.81,72766.5,-15.29,-19.13,-21.33,0,*62
1483992300.77,41033,4.81,72764.5,-15.31,-19.17,-21.39,0,*64
1483992302.02,41034,4.81,72762.3,-15.31,-19.07,-21.39,0,*62
1483992303.26,41035,4.81,72754.8,-15.31,-18.65,-21.09,0,*65
1483992304.51,41036,4.81,72756.5,-15.31,-18.65,-20.89,0,*6F
1483992305.78,41037,4.81,72766.3,-15.31,-18.89,-20.89,0,*6C
1483992307.08,41038,4.81,72760.8,-15.35,-18.93,-21.27,0,*69
1483992308.35,41039,4.81,72764.0,-15.37,-18.93,-21.27,0,*6A
1483992309.63,41040,4.81,72766.8,-15.35,-18.93,-20.89,0,*63
1483992310.87,41041,4.81,72768.8,-15.35,-19.17,-21.39,0,*65
1483992312.12,41042,4.81,72768.0,-15.37,-19.47,-21.87,0,*64
1483992313.4,41043,4.81,72770.3,-15.37,-19.61,-22.17,0,*6B
1483992314.69,41044,4.81,72766.3,-15.35,-19.61,-22.21,0,*6B
1483992315.9,41045,4.81,72760.5,-15.37,-19.75,-22.37,0,*6A
1483992317.12,41046,4.81,72768.8,-15.37,-19.47,-21.93,0,*65
1483992318.36,41047,4.81,72764.0,-15.39,-19.47,-22.03,0,*60
1483992319.63,41048,4.81,72764.5,-15.39,-19.61,-22.03,0,*6B
1483992320.86,41049,4.81,72766.5,-15.39,-19.91,-22.41,0,*63
1483992322.13,41050,4.81,72770.5,-15.39,-19.85,-22.53,0,*6D
1483992323.38,41051,4.81,72760.8,-15.39,-19.85,-22.41,0,*6F
1483992324.61,41052,4.81,72764.0,-15.39,-19.75,-22.41,0,*63
1483992325.86,41053,4.81,72770.5,-15.41,-19.91,-22.47,0,*61
1483992327.08,41054,4.81,72764.0,-15.41,-19.91,-22.63,0,*60
1483992328.31,41055,4.81,72770.8,-15.41,-19.95,-22.63,0,*65
1483992329.54,41056,4.81,72768.0,-15.41,-19.81,-22.57,0,*64
1483992330.76,41057,4.81,72762.5,-15.41,-19.91,-22.57,0,*64
1483992332.0,41058,4.81,72768.8,-15.39,-19.75,-22.37,0,*68
1483992333.26,41059,4.81,72776.5,-15.41,-19.81,-22.31,0,*6B
1483992334.55,41060,4.81,72766.3,-15.39,-19.85,-22.31,0,*6A
1483992335.76,41061,4.81,72774.5,-15.41,-19.75,-22.41,0,*6C
1483992336.97,41062,4.81,72772.3,-15.41,-19.75,-22.41,0,*6F
1483992338.2,41063,4.81,72764.8,-15.43,-19.75,-22.41,0,*6C
1483992339.44,41064,4.81,72770.8,-15.43,-19.75,-22.41,0,*6B
1483992340.68,41065,4.81,72766.3,-15.43,-19.81,-22.41,0,*61
1483992341.92,41066,4.81,72764.5,-15.43,-19.75,-22.41,0,*69
1483992343.19,41067,4.81,72766.0,-15.43,-19.75,-22.47,0,*6E
1483992344.46,41068,4.81,72770.3,-15.43,-19.75,-22.47,0,*61
1483992345.69,41069,4.81,72768.0,-15.43,-19.75,-22.41,0,*66
1483992346.91,41070,4.81,72766.3,-15.45,-19.71,-22.37,0,*6D
1483992348.18,41071,4.81,72766.8,-15.45,-19.65,-22.31,0,*6F
1483992349.42,41072,4.81,72770.0,-15.43,-19.51,-22.07,0,*68
1483992350.67,41073,4.81,72764.8,-15.45,-19.71,-22.31,0,*68
1483992351.9,41074,4.81,72764.0,-15.43,-19.75,-22.27,0,*6A
1483992353.14,41075,4.81,72764.5,-15.45,-19.81,-22.37,0,*67
1483992354.4,41076,4.81,72772.5,-15.45,-19.81,-22.47,0,*63
1483992355.64,41077,4.81,72770.3,-15.45,-19.85,-22.63,0,*60
1483992356.88,41078,4.81,72768.3,-15.45,-19.85,-22.63,0,*6F
1483992358.1,41079,4.81,72760.8,-15.45,-19.95,-22.53,0,*6C
1483992359.32,41080,4.81,72768.0,-15.45,-19.95,-22.67,0,*6D
1483992360.58,41081,4.81,72764.5,-15.47,-19.85,-22.67,0,*6F
1483992361.84,41082,4.81,72770.3,-15.47,-19.81,-22.63,0,*6C
1483992363.1,41083,4.81,72766.5,-15.47,-19.81,-22.53,0,*6E
1483992364.39,41084,4.81,72762.0,-15.47,-19.81,-22.47,0,*6C
1483992365.64,41085,4.81,72768.0,-15.45,-19.71,-22.47,0,*60
1483992366.9,41086,4.81,72758.5,-15.47,-19.81,-22.53,0,*6B
1483992368.13,41087,4.81,72764.3,-15.45,-19.81,-22.37,0,*6A
1483992369.39,41088,4.81,72766.0,-15.47,-19.81,-22.37,0,*67
1483992370.6,41089,4.81,72766.5,-15.49,-19.75,-22.37,0,*63
1483992371.82,41090,4.81,72768.8,-15.49,-19.91,-22.37,0,*61
1483992373.04,41091,4.81,72760.5,-15.49,-19.91,-22.53,0,*62
1483992374.3,41092,4.81,72762.8,-15.47,-19.81,-22.37,0,*6C
1483992375.54,41093,4.81,72764.3,-15.47,-19.71,-22.27,0,*63
1483992376.79,41094,4.81,72762.3,-15.47,-19.71,-22.37,0,*65
1483992378.01,41095,4.81,72760.3,-15.49,-19.71,-22.37,0,*6A
1483992379.25,41096,4.81,72764.3,-15.49,-19.85,-22.37,0,*62
1483992380.49,41097,4.81,72758.8,-15.49,-19.61,-22.37,0,*69
1483992381.74,41098,4.81,72760.0,-15.49,-19.71,-22.31,0,*61
1483992383.02,41099,4.81,72758.0,-15.49,-19.61,-22.17,0,*65
1483992384.3,41100,4.81,72762.0,-15.49,-19.57,-22.21,0,*64
1483992385.58,41101,4.81,72760.0,-15.49,-19.57,-22.17,0,*60
1483992386.82,41102,4.81,72766.5,-15.49,-19.61,-22.07,0,*67
1483992388.1,41103,4.81,72762.8,-15.49,-19.57,-22.17,0,*62
1483992389.35,41104,4.81,72762.5,-15.49,-19.57,-22.07,0,*64
1483992390.63,41105,4.81,72758.8,-15.51,-19.61,-22.03,0,*6D
1483992391.9,41106,4.75,72758.3,-15.51,-19.57,-22.07,0,*6F
1483992393.2,41107,4.81,72760.5,-15.51,-19.57,-22.17,0,*6F
1483992394.46,41108,4.75,72754.0,-15.53,-19.57,-22.07,0,*63
1483992395.76,41109,4.81,72766.0,-15.51,-19.61,-22.17,0,*64
1483992397.06,41110,4.81,72756.5,-15.51,-19.57,-22.17,0,*69
1483992398.36,41111,4.81,72758.5,-15.51,-19.57,-22.21,0,*6D
1483992399.66,41112,4.81,72758.8,-15.51,-19.61,-22.31,0,*6A
1483992400.94,41113,4.81,72758.8,-15.53,-19.61,-22.31,0,*69
1483992402.17,41114,4.75,72754.3,-15.51,-19.75,-22.41,0,*6E
1483992403.42,41115,4.81,72762.5,-15.51,-19.75,-22.57,0,*68
1483992404.66,41116,4.81,72754.3,-15.53,-19.85,-22.67,0,*65
1483992405.9,41117,4.75,72762.3,-15.51,-19.91,-22.67,0,*63
1483992407.17,41118,4.81,72762.3,-15.51,-19.99,-22.73,0,*61
1483992408.38,41119,4.81,72766.0,-15.53,-20.05,-22.87,0,*66
1483992409.6,41120,4.81,72762.3,-15.53,-20.05,-22.83,0,*68
1483992410.81,41121,4.81,72756.3,-15.53,-20.05,-22.83,0,*69
1483992412.03,41122,4.81,72754.5,-15.53,-20.05,-22.83,0,*6A
1483992413.25,41123,4.81,72758.0,-15.53,-20.05,-22.87,0,*6F
1483992414.48,41124,4.75,72752.0,-15.57,-20.09,-22.93,0,*65
1483992415.72,41125,4.75,72750.8,-15.57,-20.09,-22.93,0,*64
1483992416.94,41126,4.81,72752.0,-15.53,-20.05,-22.97,0,*6B
1483992418.21,41127,4.81,72756.5,-15.57,-20.25,-23.19,0,*6B
1483992419.47,41128,4.81,72760.5,-15.57,-20.25,-23.23,0,*6D
1483992420.76,41129,4.81,72752.0,-15.57,-20.35,-23.33,0,*6C
1483992422.04,41130,4.75,72758.5,-15.57,-20.35,-23.33,0,*64
1483992423.28,41131,4.81,72756.3,-15.57,-20.39,-23.43,0,*6E
1483992424.55,41132,4.81,72754.5,-15.57,-20.35,-23.43,0,*61
1483992425.81,41133,4.81,72758.0,-15.57,-20.25,-23.19,0,*6E
1483992427.05,41134,4.81,72752.8,-15.59,-20.25,-23.23,0,*6E
1483992428.27,41135,4.81,72754.0,-15.59,-20.39,-23.43,0,*64
1483992429.51,41136,4.75,72748.8,-15.57,-20.39,-23.43,0,*69
1483992430.75,41137,4.81,72752.3,-15.59,-20.35,-23.43,0,*6A
1483992432.01,41138,4.75,72758.8,-15.57,-20.35,-23.43,0,*6B
1483992433.25,41139,4.75,72750.3,-15.59,-20.35,-23.43,0,*64
1483992434.51,41140,4.75,72754.3,-15.61,-20.43,-23.65,0,*64
1483992435.78,41141,4.75,72762.3,-15.61,-20.39,-23.65,0,*68
1483992437.03,41142,4.81,72756.5,-15.59,-20.53,-23.69,0,*60
1483992438.24,41143,4.75,72754.3,-15.59,-20.39,-23.59,0,*6E
1483992439.49,41144,4.75,72748.3,-15.59,-20.35,-23.53,0,*6F
1483992440.72,41145,4.75,72748.8,-15.61,-20.29,-23.59,0,*62
1483992441.95,41146,4.75,72754.3,-15.61,-20.29,-23.59,0,*61
1483992443.24,41147,4.75,72752.0,-15.61,-20.49,-23.65,0,*69
1483992444.48,41148,4.81,72752.0,-15.61,-20.59,-23.79,0,*6A
1483992445.73,41149,4.75,72754.3,-15.57,-20.43,-23.75,0,*69
1483992446.99,41150,4.75,72754.5,-15.61,-20.49,-23.79,0,*62
1483992448.25,41151,4.81,72754.5,-15.61,-20.49,-23.75,0,*6F
1483992449.49,41152,4.81,72762.3,-15.63,-20.49,-23.79,0,*62
1483992450.74,41153,4.81,72750.8,-15.59,-20.35,-23.69,0,*60
1483992451.98,41154,4.75,72760.0,-15.61,-20.25,-23.39,0,*68
1483992453.21,41155,4.81,72756.0,-15.61,-20.29,-23.59,0,*63
1483992454.45,41156,4.75,72756.8,-15.63,-20.25,-23.49,0,*6F
1483992455.65,41157,4.75,72752.8,-15.63,-20.29,-23.39,0,*65
1483992456.87,41158,4.75,72752.3,-15.63,-20.39,-23.59,0,*6D
1483992458.11,41159,4.75,72748.8,-15.63,-20.43,-23.65,0,*6E
1483992459.33,41160,4.81,72748.8,-15.63,-20.43,-23.59,0,*6B
1483992460.55,41161,4.75,72746.5,-15.63,-20.59,-23.79,0,*63
1483992461.76,41162,4.81,72752.3,-15.63,-20.63,-23.89,0,*66
1483992462.98,41163,4.81,72756.3,-15.63,-20.63,-23.89,0,*67
1483992464.19,41164,4.75,72748.8,-15.63,-20.73,-24.05,0,*62
1483992465.4,41165,4.75,72750.8,-15.63,-20.73,-24.05,0,*63
1483992466.62,41166,4.75,72746.3,-15.63,-20.63,-24.05,0,*61
1483992467.85,41167,4.75,72750.3,-15.63,-20.73,-24.11,0,*64
1483992469.14,41168,4.81,72752.0,-15.65,-20.79,-24.25,0,*60
1483992470.41,41169,4.81,72750.5,-15.65,-20.93,-24.25,0,*65
1483992471.65,41170,4.81,72752.8,-15.65,-21.09,-24.47,0,*6B
1483992472.92,41171,4.81,72758.3,-15.65,-20.83,-24.31,0,*68
1483992474.18,41172,4.75,72756.0,-15.67,-20.79,-23.99,0,*69
1483992475.42,41173,4.81,72750.0,-15.67,-20.99,-24.31,0,*63
1483992476.66,41174,4.75,72752.5,-15.67,-21.09,-24.41,0,*6B
1483992477.9,41175,4.81,72752.8,-15.67,-21.09,-24.41,0,*6A
1483992479.14,41176,4.81,72754.3,-15.67,-20.99,-24.31,0,*66
1483992480.4,41177,4.81,72752.5,-15.65,-21.09,-24.41,0,*6A
1483992481.67,41178,4.75,72758.3,-15.67,-20.99,-24.41,0,*6F
1483992482.94,41179,4.81,72754.5,-15.67,-20.99,-24.41,0,*6E
1483992484.18,41180,4.81,72748.0,-15.67,-20.79,-24.31,0,*61
1483992485.42,41181,4.75,72756.5,-15.69,-20.89,-24.35,0,*65
1483992486.69,41182,4.75,72748.5,-15.69,-20.99,-24.47,0,*62
1483992487.96,41183,4.81,72762.5,-15.69,-20.99,-24.51,0,*64
1483992489.23,41184,4.81,72756.3,-15.69,-21.03,-24.51,0,*61
1483992490.5,41185,4.75,72756.5,-15.69,-21.03,-24.47,0,*67
1483992491.75,41186,4.75,72750.3,-15.69,-20.89,-24.31,0,*66
1483992492.99,41187,4.81,72754.3,-15.71,-20.99,-24.35,0,*6B
1483992494.23,41188,4.75,72750.0,-15.71,-20.99,-24.61,0,*65
1483992495.52,41189,4.75,72754.8,-15.69,-21.03,-24.67,0,*69
1483992496.81,41190,4.75,72760.3,-15.69,-20.99,-24.67,0,*63
1483992498.08,41191,4.81,72752.8,-15.69,-20.99,-24.51,0,*67
1483992499.33,41192,4.75,72746.5,-15.71,-20.99,-24.61,0,*6E
1483992500.57,41193,4.75,72752.8,-15.71,-20.99,-24.51,0,*6C